Weather History for Guatemala Aeropuertola Aurora, Guatemala

Change the Weather History Date:

Sunday, October 13, 2013

  Actual Average Record
Temperature  
Mean Temperature 70 °F -  
Max Temperature 78 °F 72 °F - ()
Min Temperature 62 °F 58 °F - ()
Cooling Degree Days 5    
Growing Degree Days 20 (Base 50)    
Moisture  
Dew Point 61 °F    
Average Humidity 79    
Maximum Humidity 94    
Minimum Humidity 54    
Precipitation  
Precipitation 0.00 in - - ()
Sea Level Pressure  
Sea Level Pressure 30.22 in    
Wind  
Wind Speed 10 mph ()    
Max Wind Speed 18 mph    
Max Gust Speed -    
Visibility 6.2 miles    
Events      
T = Trace of Precipitation, MM = Missing Value Source: Averaged Metar Reports

Daily Weather History Graph

Daily Weather History Graph

Search for Another Location

Airport:

Trip Planner

Search our weather history database for the weather conditions in past years. The results will help you decide how hot, cold, wet, or windy it might be!

Date:

Astronomy

Oct. 13, 2013 Rise Set
Actual Time 5:53 AM CST 5:43 PM CST
Civil Twilight 5:31 AM CST 6:04 PM CST
Nautical Twilight 5:06 AM CST 6:29 PM CST
Astronomical Twilight 4:41 AM CST 6:54 PM CST
Moon 1:49 PM CST (10/13) 12:54 AM CST (10/13)
Length of Visible Light 12h 33m
Length of Day
11h 50m
Waxing Gibbous, 70% of the Moon is Illuminated
Oct 13
Waxing Gibbous
Oct 18
Full
Oct 26
Last Quarter
Nov 3
New
Nov 9
First Quarter

Hourly Weather History & Observations

Time (CST) Temp. Dew Point Humidity Pressure Visibility Wind Dir Wind Speed Gust Speed Precip Events Conditions
12:00 AM 66.2 °F 62.6 °F 88% 30.30 in 6.2 mi North 5.8 mph - N/A   Mostly Cloudy
1:00 AM 64.4 °F 62.6 °F 94% 30.27 in 6.2 mi North 9.2 mph - N/A   Scattered Clouds
2:00 AM 64.4 °F 62.6 °F 94% 30.24 in 6.2 mi North 11.5 mph - N/A   Scattered Clouds
3:00 AM 64.4 °F 60.8 °F 88% 30.24 in 6.2 mi NNE 13.8 mph - N/A   Mostly Cloudy
4:00 AM 64.4 °F 60.8 °F 88% 30.24 in 6.2 mi North 9.2 mph - N/A   Mostly Cloudy
5:00 AM 64.4 °F 60.8 °F 88% 30.24 in 6.2 mi North 11.5 mph - N/A   Mostly Cloudy
6:00 AM 63 °F 61 °F 89% 29.95 in 25 mi North 16.1 mph - -   Overcast
6:00 AM 62.6 °F 60.8 °F 94% 30.27 in 6.2 mi North 16.1 mph - N/A   Scattered Clouds
7:00 AM 64.4 °F 60.8 °F 88% 30.27 in 6.2 mi North 9.2 mph - N/A   Scattered Clouds
8:00 AM 64.4 °F 60.8 °F 88% 30.30 in 6.2 mi North 11.5 mph - N/A   Mostly Cloudy
9:00 AM 68.0 °F 60.8 °F 78% 30.30 in 6.2 mi North 11.5 mph - N/A   Mostly Cloudy
10:00 AM 69.8 °F 59.0 °F 68% 30.33 in 6.2 mi North 13.8 mph - N/A   Mostly Cloudy
11:00 AM 71.6 °F 59.0 °F 64% 30.30 in 6.2 mi North 13.8 mph - N/A   Mostly Cloudy
12:00 PM 72 °F 60 °F 57% 29.93 in 25 mi North 16.1 mph - -   Mostly Cloudy
12:00 PM 71.6 °F 60.8 °F 69% 30.27 in 6.2 mi North 16.1 mph - N/A   Mostly Cloudy
1:00 PM 75.2 °F 60.8 °F 61% 30.24 in 6.2 mi North 18.4 mph - N/A   Mostly Cloudy
2:00 PM 75.2 °F 59.0 °F 57% 30.21 in 6.2 mi North 13.8 mph - N/A   Scattered Clouds
3:00 PM 77.0 °F 59.0 °F 54% 30.21 in 6.2 mi North 11.5 mph - N/A   Scattered Clouds
4:00 PM 75.2 °F 59.0 °F 57% 30.18 in 6.2 mi North 13.8 mph - N/A   Partly Cloudy
5:00 PM 73.4 °F 60.8 °F 65% 30.18 in 6.2 mi North 11.5 mph - N/A   Scattered Clouds
6:00 PM 69 °F 63 °F 74% 29.91 in 25 mi NNW 6.9 mph - -   Mostly Cloudy
6:00 PM 69.8 °F 62.6 °F 78% 30.24 in 6.2 mi NNW 6.9 mph - N/A   Partly Cloudy
7:00 PM 66.2 °F 62.6 °F 88% 30.24 in 6.2 mi North 9.2 mph - N/A   Light Drizzle
7:40 PM - - N/A% - 6.2 mi North 6.9 mph - N/A   Mostly Cloudy
8:00 PM 66.2 °F 62.6 °F 88% 30.27 in 6.2 mi North 11.5 mph - N/A   Mostly Cloudy
9:00 PM 64.4 °F 60.8 °F 88% 30.30 in 6.2 mi NNE 13.8 mph - N/A   Mostly Cloudy
10:00 PM 64.4 °F 60.8 °F 88% 30.30 in 6.2 mi North 9.2 mph - N/A   Mostly Cloudy
10:35 PM - - N/A% - 5.0 mi North 9.2 mph - N/A   Light Drizzle
11:00 PM 62.6 °F 60.8 °F 94% 30.30 in 6.2 mi NNE 13.8 mph - N/A   Mostly Cloudy